Date,TemperatureHighF,TemperatureAvgF,TemperatureLowF,DewpointHighF,DewpointAvgF,DewpointLowF,HumidityHigh,HumidityAvg,HumidityLow,PressureMaxIn,PressureMinIn,WindSpeedMaxMPH,WindSpeedAvgMPH,GustSpeedMaxMPH,PrecipitationSumIn
2013-1-1,38.8,35.7,27.3,30.6,27.8,17.1,79,73,63,30.03,29.85,12,2,12,0.06
2013-1-2,32.4,26.6,22.6,19.0,16.5,14.2,73,66,57,30.20,29.98,12,1,12,0.00
2013-1-3,31.6,26.5,20.1,20.5,17.2,14.7,80,68,54,30.21,30.09,12,1,12,0.00
2013-1-4,37.0,32.6,28.8,24.8,22.3,20.1,70,66,59,30.12,29.99,18,3,18,0.00
2013-1-5,40.5,32.6,28.0,26.1,22.4,19.6,77,66,53,30.33,30.05,16,1,16,0.00
2013-1-6,46.2,37.6,30.7,35.1,29.0,23.9,94,72,49,30.22,29.99,12,1,14,0.01
2013-1-7,45.9,37.5,30.2,32.7,28.1,25.0,81,69,51,30.40,30.07,9,1,10,0.00
2013-1-8,47.5,36.2,27.9,34.5,29.0,23.7,87,76,58,30.41,30.34,13,1,13,0.00
2013-1-9,48.4,39.8,28.9,39.4,34.1,26.8,93,81,69,30.39,30.15,10,1,14,0.00
2013-1-10,48.6,41.1,35.4,33.6,28.7,26.2,71,61,48,30.52,30.27,11,1,14,0.00
2013-1-11,43.9,39.3,31.6,42.3,34.1,25.9,96,82,67,30.51,30.07,7,0,7,0.47
2013-1-12,49.3,43.8,41.2,46.0,42.5,40.5,97,95,88,30.16,30.07,6,0,6,0.00
2013-1-13,47.7,44.9,41.7,47.1,44.3,41.0,98,97,97,30.14,29.98,6,0,6,0.03
2013-1-14,53.8,48.8,38.7,52.0,44.9,33.1,98,87,58,30.27,29.91,8,1,8,0.10
2013-1-15,38.7,36.0,33.1,36.0,31.0,28.8,93,82,74,30.33,30.18,8,1,8,0.12
2013-1-16,35.4,33.3,31.6,34.3,32.1,30.4,96,95,91,30.19,29.79,9,0,9,0.54
2013-1-17,42.1,37.7,35.4,34.9,31.9,29.1,96,80,66,30.09,29.92,12,2,12,0.00
2013-1-18,29.5,26.6,25.0,15.1,13.2,9.7,63,57,44,30.47,30.40,8,0,8,0.00
2013-1-19,49.8,37.9,26.1,31.3,26.2,14.9,82,63,47,30.40,29.92,15,2,15,0.00
2013-1-20,53.8,41.0,28.0,32.9,24.8,12.2,76,54,30,30.04,29.72,24,3,24,0.00
2013-1-21,31.5,26.4,20.8,22.8,14.5,10.6,87,61,48,30.09,29.85,15,1,19,0.00
2013-1-22,23.4,16.9,11.3,12.7,1.9,-3.6,65,51,38,30.24,29.86,19,4,19,0.00
2013-1-23,19.9,13.0,9.3,5.9,1.5,-2.9,78,60,46,30.29,30.17,15,2,15,0.00
2013-1-24,24.1,16.9,11.5,7.3,4.1,-0.6,80,58,35,30.45,30.12,14,2,15,0.00
2013-1-25,21.7,15.3,10.2,14.4,5.7,-0.6,89,67,47,30.45,30.07,12,1,13,0.00
2013-1-26,25.7,18.3,8.1,13.5,10.2,5.2,90,72,54,30.40,30.06,13,1,13,0.02
2013-1-27,33.1,22.7,12.6,18.9,13.0,6.6,79,67,51,30.55,30.40,11,1,12,0.02
2013-1-28,34.9,30.4,24.1,33.8,26.7,15.8,96,86,69,30.50,30.01,10,1,10,0.02
2013-1-29,48.4,42.7,33.6,44.8,40.5,32.4,96,92,86,30.13,30.00,8,0,8,0.00
2013-1-30,65.5,52.9,40.5,59.4,51.0,39.7,98,93,80,30.02,29.31,15,1,17,0.36
2013-1-31,60.8,42.2,27.0,58.8,32.0,12.7,97,68,43,29.82,29.05,25,5,25,0.84
2013-2-1,30.7,25.9,19.8,18.9,11.3,6.6,77,54,40,30.27,29.80,16,3,17,0.00
2013-2-2,28.9,22.1,15.1,21.6,11.0,5.5,92,63,42,30.30,30.02,13,2,14,0.00
2013-2-3,28.9,24.6,19.9,24.1,20.8,18.0,93,86,72,30.02,29.80,15,0,15,0.02
2013-2-4,29.7,24.5,18.9,22.5,13.3,10.4,83,62,49,30.02,29.84,18,2,18,0.01
2013-2-5,30.9,28.5,26.1,28.0,25.4,22.3,93,88,82,29.95,29.87,4,0,4,0.00
2013-2-6,38.3,30.7,25.0,29.3,23.8,15.8,95,77,57,30.34,29.91,13,1,14,0.01
2013-2-7,32.9,27.6,21.7,22.1,16.8,12.7,74,64,52,30.48,30.27,10,1,10,0.00
2013-2-8,34.3,32.3,30.0,32.0,29.6,22.1,95,90,72,30.27,29.67,13,2,13,0.16
2013-2-9,32.0,26.7,19.2,30.0,18.0,9.7,95,71,51,30.37,29.77,19,3,22,0.10
2013-2-10,37.9,26.2,13.5,21.9,14.0,8.4,82,61,38,30.48,30.30,6,1,6,0.07
2013-2-11,46.9,37.7,30.0,46.0,35.6,21.4,97,92,68,30.30,29.65,10,0,10,0.22
2013-2-12,45.7,38.9,29.7,38.5,27.5,23.2,96,64,50,29.97,29.75,19,3,19,0.00
2013-2-13,41.9,33.6,25.5,30.9,26.7,21.9,95,77,59,29.95,29.66,7,0,8,0.00
2013-2-14,45.7,36.2,28.4,33.6,29.9,26.6,96,79,55,30.00,29.70,8,0,8,0.14
2013-2-15,57.0,42.1,31.6,37.4,32.2,28.0,92,70,44,30.01,29.90,11,1,11,0.02
2013-2-16,36.3,33.0,28.6,32.5,26.1,12.7,95,77,51,29.97,29.75,17,2,17,0.05
2013-2-17,31.6,25.9,18.9,13.1,8.9,2.8,55,48,41,30.06,29.73,23,5,23,0.00
2013-2-18,35.2,25.7,17.1,14.7,9.4,3.4,60,50,38,30.30,30.06,15,3,20,0.00
2013-2-19,43.3,35.5,25.5,40.8,28.9,14.5,95,78,54,30.18,29.68,13,1,15,0.26
2013-2-20,33.6,28.1,23.2,26.2,15.7,11.3,74,60,48,30.03,29.76,21,3,21,0.00
2013-2-21,34.5,27.5,22.3,18.3,15.2,11.5,70,60,49,30.30,30.01,18,3,19,0.00
2013-2-22,36.0,29.3,21.2,29.1,21.5,14.4,85,73,63,30.40,30.23,8,1,9,0.00
2013-2-23,43.5,37.6,31.6,42.6,36.4,29.1,97,95,85,30.25,29.79,9,0,11,0.10
2013-2-24,45.9,37.0,29.8,39.2,30.7,21.0,96,79,60,30.01,29.76,18,2,18,0.00
2013-2-25,44.4,35.1,26.6,31.8,25.5,20.5,82,68,51,30.22,30.01,11,1,13,0.00
2013-2-26,43.7,35.3,27.0,34.7,29.6,23.2,94,80,64,30.24,29.78,16,2,16,0.30
2013-2-27,51.3,43.1,36.3,46.8,39.3,34.7,97,87,72,29.79,29.49,16,2,20,0.17
2013-2-28,46.2,40.9,33.4,37.0,32.7,27.1,87,73,51,29.64,29.55,11,1,11,0.00
2013-3-1,43.5,37.0,30.6,32.7,29.0,25.9,91,73,55,29.80,29.62,13,2,13,0.00
2013-3-2,39.6,33.7,29.7,26.6,23.7,20.5,74,67,56,29.80,29.71,15,2,15,0.00
2013-3-3,37.0,30.7,25.2,22.8,19.7,17.2,74,63,53,29.79,29.70,17,3,17,0.00
2013-3-4,40.8,32.9,27.7,23.7,20.2,16.3,71,60,47,29.94,29.79,15,4,17,0.00
2013-3-5,46.9,36.8,29.7,29.3,25.5,22.1,79,64,47,30.02,29.92,15,1,15,0.00
2013-3-6,39.2,36.5,32.2,35.4,32.0,27.1,91,84,72,29.93,29.75,20,4,20,0.05
2013-3-7,45.0,38.4,34.0,32.4,28.6,25.9,86,68,52,30.08,29.91,17,4,17,0.00
2013-3-8,41.9,34.3,28.9,32.2,28.6,25.0,92,80,65,30.22,30.03,15,3,15,0.11
2013-3-9,60.1,43.8,30.4,29.7,21.9,12.0,73,46,21,30.30,30.19,10,1,12,0.00
2013-3-10,55.0,42.4,30.2,36.7,28.8,12.7,90,61,34,30.35,30.23,8,1,10,0.00
2013-3-11,58.6,45.6,35.2,47.7,40.6,32.5,97,84,45,30.28,30.03,12,1,12,0.00
2013-3-12,56.7,50.5,39.2,55.6,47.8,34.5,97,90,78,30.04,29.65,25,2,25,1.10
2013-3-13,50.0,39.9,32.7,35.8,29.7,23.7,84,68,46,29.93,29.81,15,2,15,0.00
2013-3-14,41.2,33.8,27.1,23.7,17.8,12.7,81,53,36,29.99,29.88,20,3,20,0.00
2013-3-15,50.2,38.5,25.7,32.5,22.2,12.9,64,52,42,30.01,29.71,17,2,17,0.00
2013-3-16,44.2,35.2,31.1,32.0,28.6,22.8,94,78,59,29.91,29.74,10,0,11,0.02
2013-3-17,38.7,32.1,27.7,30.6,23.5,19.2,94,72,52,30.29,29.90,10,1,10,0.07
2013-3-18,37.8,31.2,27.0,32.9,23.1,12.4,95,73,53,30.35,29.90,13,2,13,0.24
2013-3-19,50.5,39.2,33.6,39.6,32.0,19.9,96,78,43,29.91,29.68,16,2,16,0.45
2013-3-20,46.9,37.6,29.5,24.6,20.5,17.8,66,51,33,29.91,29.76,17,2,17,0.00
2013-3-21,37.6,32.0,26.8,28.2,20.3,12.7,91,64,39,29.82,29.64,15,2,15,0.00
2013-3-22,41.4,32.6,25.7,23.9,19.9,13.5,74,60,45,29.91,29.76,17,3,17,0.00
2013-3-23,47.8,37.2,29.1,27.0,21.4,19.2,69,54,39,29.94,29.84,15,2,16,0.00
2013-3-24,46.2,37.7,27.1,27.0,21.9,18.5,72,54,38,29.96,29.67,14,1,14,0.00
2013-3-25,36.7,34.4,32.4,33.3,30.4,25.9,94,86,66,29.68,29.46,10,1,12,0.23
2013-3-26,51.6,40.6,33.3,36.3,32.2,26.8,95,74,42,29.89,29.61,13,1,14,0.01
2013-3-27,52.2,41.2,30.6,34.2,30.2,26.4,90,67,40,30.01,29.88,14,2,19,0.00
2013-3-28,47.1,40.7,31.5,32.2,29.3,26.2,82,65,48,30.13,29.98,13,2,13,0.00
2013-3-29,54.5,44.1,32.9,32.2,29.6,26.2,77,57,40,30.16,30.07,11,1,11,0.00
2013-3-30,58.5,46.2,32.7,34.9,27.8,23.4,80,52,28,30.17,30.06,12,1,12,0.00
2013-3-31,55.4,45.4,35.2,45.9,36.3,26.2,96,73,41,30.11,29.69,16,2,16,0.14
2013-4-1,63.0,48.2,35.1,46.6,36.8,15.8,96,68,41,29.92,29.64,26,2,26,0.01
2013-4-2,45.5,36.6,28.4,20.7,15.8,12.9,57,43,30,30.10,29.92,17,3,20,0.00
2013-4-3,47.5,36.8,27.5,21.2,15.5,11.1,58,42,30,30.30,30.09,20,2,20,0.00
2013-4-4,52.5,39.1,26.1,28.0,20.2,12.6,64,48,31,30.40,30.07,10,1,10,0.00
2013-4-5,63.1,48.8,37.8,34.5,27.4,18.3,82,48,21,30.07,29.73,15,2,16,0.00
2013-4-6,52.3,42.0,32.4,29.1,20.7,15.4,66,44,25,30.29,29.99,13,2,13,0.00
2013-4-7,62.8,49.7,37.6,44.1,36.2,28.8,75,61,46,30.28,29.96,17,2,17,0.00
2013-4-8,77.2,62.7,49.3,50.9,46.7,42.6,78,58,36,30.06,29.93,11,1,11,0.00
2013-4-9,83.1,71.4,59.7,55.2,50.7,44.4,73,51,27,29.98,29.86,18,2,18,0.00
2013-4-10,87.6,71.5,59.9,61.0,56.0,52.0,96,61,37,29.90,29.74,18,2,18,0.68
2013-4-11,62.1,57.4,47.3,59.9,54.0,42.8,97,89,73,29.94,29.74,13,1,13,0.02
2013-4-12,47.3,43.2,41.4,43.5,41.6,40.1,97,94,85,29.92,29.67,12,2,16,0.50
2013-4-13,59.5,49.4,38.5,44.1,38.8,35.6,97,70,44,29.96,29.73,10,1,15,0.00
2013-4-14,60.6,51.6,39.9,40.6,35.2,28.8,86,55,35,30.15,29.95,18,2,18,0.00
2013-4-15,58.6,50.3,43.9,43.7,37.1,30.7,76,61,52,30.32,30.15,9,2,10,0.00
2013-4-16,70.5,58.3,44.1,58.5,50.0,41.0,91,75,60,30.32,30.09,16,1,16,0.00
2013-4-17,71.1,61.0,52.5,56.1,47.0,34.9,92,64,32,30.25,30.07,10,1,10,0.00
2013-4-18,59.9,54.6,49.5,55.0,49.1,41.2,95,82,71,30.27,30.04,10,1,10,0.00
2013-4-19,76.5,65.2,54.1,66.2,60.8,52.5,96,86,67,30.04,29.58,16,2,17,0.80
2013-4-20,58.5,50.1,43.5,52.7,35.5,25.7,95,60,36,30.30,29.68,19,2,19,0.19
2013-4-21,55.2,43.6,33.3,32.7,26.2,21.4,72,51,34,30.59,30.30,10,1,11,0.00
2013-4-22,51.8,43.4,34.7,38.1,33.0,28.8,81,68,49,30.60,30.43,15,2,15,0.00
2013-4-23,48.9,44.0,39.7,43.2,38.0,33.1,91,80,71,30.43,30.12,9,1,9,0.00
2013-4-24,71.2,56.2,39.4,56.7,48.2,37.0,94,76,57,30.12,29.78,12,1,13,0.00
2013-4-25,64.2,53.2,42.3,56.3,33.8,26.4,82,50,25,30.25,29.85,17,2,18,0.00
2013-4-26,64.2,53.2,41.4,40.1,32.6,27.9,73,47,28,30.40,30.25,11,1,11,0.00
2013-4-27,69.6,55.8,40.8,40.5,34.3,29.5,72,46,28,30.42,30.25,9,0,9,0.00
2013-4-28,70.9,57.7,43.3,46.4,38.5,29.1,80,51,33,30.29,30.15,11,1,12,0.00
2013-4-29,54.7,52.4,49.5,53.8,50.1,42.1,97,92,67,30.19,30.10,13,1,13,0.54
2013-4-30,68.2,56.3,45.9,52.9,44.9,32.2,97,69,34,30.30,30.15,9,1,9,0.02
2013-5-1,67.5,54.2,42.3,44.2,37.4,28.6,81,56,26,30.44,30.29,13,1,13,0.00
2013-5-2,72.7,56.6,41.4,52.0,42.7,38.8,94,63,34,30.43,30.30,7,0,7,0.00
2013-5-3,63.0,54.1,44.8,43.5,40.6,35.6,86,62,38,30.40,30.30,13,1,13,0.00
2013-5-4,67.8,53.7,40.3,48.9,42.4,38.5,95,69,39,30.34,30.18,10,0,10,0.00
2013-5-5,63.9,50.8,39.6,46.0,41.2,37.2,93,71,47,30.25,30.16,8,1,9,0.00
2013-5-6,67.8,53.8,42.3,55.2,48.3,39.2,94,82,61,30.22,30.10,8,0,8,0.00
2013-5-7,70.2,59.1,50.5,61.2,55.2,49.5,96,87,68,30.12,30.02,7,0,7,0.01
2013-5-8,69.3,60.6,56.5,63.5,58.6,55.2,97,93,74,30.03,29.89,6,0,6,0.34
2013-5-9,70.9,60.3,54.1,60.4,55.7,53.2,97,86,60,29.95,29.88,9,0,9,0.26
2013-5-10,82.6,68.1,54.3,63.0,57.2,52.9,97,72,38,29.98,29.86,8,0,8,0.30
2013-5-11,73.2,64.2,60.4,66.7,61.7,57.7,97,92,74,29.89,29.68,8,0,10,0.86
2013-5-12,64.8,57.8,45.1,58.1,43.0,27.3,93,62,30,29.95,29.66,19,1,19,0.01
2013-5-13,55.2,46.8,39.6,35.4,31.6,24.8,80,57,34,30.11,29.95,15,0,15,0.00
2013-5-14,62.4,48.7,35.1,35.6,31.4,27.3,89,55,29,30.15,30.02,9,0,10,0.00
2013-5-15,73.2,60.3,48.7,59.4,49.4,32.5,85,67,52,30.05,29.68,8,0,9,0.00
2013-5-16,80.8,67.9,58.3,66.6,59.5,52.3,95,76,54,29.83,29.69,9,0,9,0.04
2013-5-17,74.3,63.3,53.8,52.5,45.2,40.1,72,53,33,30.17,29.83,9,0,9,0.00
2013-5-18,66.6,58.5,53.2,55.6,51.6,46.6,94,78,62,30.25,30.16,11,0,11,0.00
2013-5-19,60.3,57.7,55.0,59.4,56.7,54.0,98,97,94,30.25,30.13,6,0,6,0.22
2013-5-20,78.3,66.2,56.5,68.9,62.7,55.9,98,89,71,30.14,29.94,5,0,5,0.01
2013-5-21,85.3,73.6,62.8,72.9,67.7,61.7,98,83,63,29.95,29.82,8,0,9,0.00
2013-5-22,86.4,74.8,66.7,74.1,69.1,65.5,97,84,59,29.88,29.78,8,0,8,0.00
2013-5-23,81.9,71.6,65.3,70.7,67.8,63.5,96,88,67,29.85,29.71,11,0,15,0.88
2013-5-24,64.9,53.6,45.0,63.1,50.3,38.8,98,89,73,29.99,29.67,14,1,15,0.12
2013-5-25,60.3,51.8,44.8,41.7,38.1,33.1,85,61,41,30.04,29.94,15,1,17,0.00
2013-5-26,69.3,56.9,46.0,45.1,38.3,34.5,70,52,30,30.19,30.00,12,1,12,0.00
2013-5-27,73.2,59.7,44.6,47.3,41.4,35.1,77,53,32,30.24,30.12,10,0,10,0.00
2013-5-28,63.7,58.2,52.2,62.2,54.4,45.7,97,88,67,30.19,30.08,5,0,5,0.16
2013-5-29,88.9,72.2,57.7,72.7,63.8,56.8,98,78,45,30.09,29.99,11,0,11,0.01
2013-5-30,91.4,80.0,68.2,70.2,66.4,62.8,91,66,41,30.11,30.04,7,0,7,0.00
2013-5-31,92.7,79.9,67.8,72.1,65.9,58.8,91,65,35,30.10,29.97,7,0,7,0.00
2013-6-1,90.9,79.5,68.5,73.2,68.3,65.5,90,70,46,29.99,29.86,8,0,8,0.00
2013-6-2,86.2,78.3,71.1,72.5,68.8,64.4,85,73,59,29.88,29.75,11,0,11,0.00
2013-6-3,82.6,70.7,64.4,70.5,67.2,59.0,97,89,58,29.86,29.77,8,0,10,0.89
2013-6-4,76.6,64.5,54.3,59.4,47.9,42.6,82,57,33,30.08,29.86,7,0,9,0.00
2013-6-5,79.2,64.1,50.4,54.7,47.9,41.0,78,57,36,30.18,30.05,3,0,6,0.00
2013-6-6,72.9,62.1,53.8,61.9,56.1,51.6,97,82,50,30.10,29.94,7,0,10,0.14
2013-6-7,64.0,61.5,59.4,63.5,60.8,57.9,98,97,95,29.94,29.57,5,0,6,2.23
2013-6-8,78.6,67.2,58.5,66.9,61.8,57.4,98,84,63,30.04,29.57,7,0,7,0.01
2013-6-9,82.8,70.3,56.8,63.9,59.9,55.2,95,72,45,30.15,30.04,6,0,7,0.00
2013-6-10,70.7,67.6,64.0,70.0,65.9,62.4,98,94,82,30.11,29.74,7,0,8,1.48
2013-6-11,80.2,72.5,65.5,69.6,65.8,60.6,98,81,64,29.74,29.64,12,0,14,0.04
2013-6-12,81.7,71.6,64.0,63.1,59.9,56.5,85,68,44,29.81,29.73,9,0,9,0.00
2013-6-13,74.1,66.0,57.6,70.0,61.5,56.1,96,86,72,29.81,29.37,6,0,6,0.90
2013-6-14,75.6,61.4,53.2,61.9,55.0,50.7,95,81,54,29.89,29.49,7,0,7,0.91
2013-6-15,80.8,68.9,55.9,63.5,56.9,53.1,91,68,40,30.01,29.89,9,0,9,0.00
2013-6-16,83.5,70.3,59.4,67.1,60.5,53.6,89,72,49,29.97,29.78,11,0,12,0.00
2013-6-17,86.4,74.4,64.2,71.2,66.1,62.6,95,77,54,29.89,29.81,7,0,8,0.00
2013-6-18,76.8,68.0,63.1,70.7,65.9,62.1,97,93,79,29.88,29.77,10,0,10,0.61
2013-6-19,77.4,66.4,57.7,62.1,55.5,48.9,96,71,40,30.13,29.84,5,0,5,0.00
2013-6-20,81.0,68.2,54.9,62.4,56.5,50.7,94,68,45,30.24,30.13,7,0,7,0.00
2013-6-21,84.0,70.9,57.6,61.7,55.6,50.4,80,60,42,30.28,30.19,5,0,7,0.00
2013-6-22,86.7,72.4,58.6,68.5,61.9,53.8,91,71,49,30.23,30.08,6,0,7,0.00
2013-6-23,87.3,74.7,64.2,73.6,67.9,61.0,92,80,60,30.16,30.01,6,0,6,0.00
2013-6-24,92.5,78.3,71.1,75.2,69.7,64.2,95,76,51,30.05,29.94,5,0,7,0.00
2013-6-25,91.2,77.2,67.1,75.0,68.4,63.3,91,75,48,29.97,29.80,10,0,12,0.06
2013-6-26,87.3,75.0,67.3,75.4,68.4,63.9,96,81,56,29.84,29.74,6,0,9,0.59
2013-6-27,86.4,75.4,69.4,74.8,70.8,68.2,97,87,63,29.79,29.51,10,0,12,0.70
2013-6-28,86.5,74.7,68.2,73.9,69.4,65.5,97,85,62,29.54,29.44,8,0,8,0.70
2013-6-29,87.6,75.6,66.4,69.6,66.3,63.3,97,75,47,29.66,29.44,7,0,7,0.00
2013-6-30,81.0,73.5,69.1,75.2,70.5,64.6,97,90,79,29.85,29.66,2,0,5,1.03
2013-7-1,78.3,73.5,68.7,74.3,71.8,67.6,98,94,86,29.98,29.83,9,0,9,2.03
2013-7-2,84.2,76.4,72.7,75.7,72.2,69.6,95,87,73,30.14,29.98,6,0,8,0.00
2013-7-3,86.4,76.6,70.9,77.5,72.2,68.4,95,86,71,30.20,30.12,6,0,7,0.00
2013-7-4,88.9,79.8,73.2,76.3,73.2,70.0,96,81,64,30.22,30.12,8,0,8,0.00
2013-7-5,90.9,81.4,72.5,76.6,73.0,70.5,95,77,54,30.18,30.06,8,0,8,0.00
2013-7-6,93.6,82.6,73.9,76.6,73.4,71.4,95,75,52,30.12,29.99,6,0,8,0.00
2013-7-7,93.0,81.0,70.0,78.6,72.7,68.5,96,77,53,30.04,29.91,10,0,10,0.41
2013-7-8,86.7,74.7,68.0,73.8,69.0,65.7,97,84,60,30.03,29.96,6,0,11,0.00
2013-7-9,86.9,76.6,68.5,75.6,70.6,66.2,95,82,62,30.04,29.95,5,0,5,0.00
2013-7-10,87.3,79.3,73.2,76.3,73.3,70.7,95,82,64,29.98,29.78,9,0,11,0.00
2013-7-11,84.0,77.2,73.6,74.3,70.6,64.4,92,81,62,29.88,29.77,4,0,5,0.00
2013-7-12,74.5,71.1,68.0,69.4,65.6,62.1,97,83,71,30.01,29.87,1,0,6,1.14
2013-7-13,85.5,74.5,68.0,76.6,71.8,67.1,98,92,71,30.25,30.01,4,0,4,0.14
2013-7-14,90.3,79.8,72.3,76.5,73.0,70.2,97,81,58,30.31,30.21,6,0,8,0.01
2013-7-15,94.1,82.1,72.1,77.7,73.5,68.5,92,76,55,30.23,30.10,5,0,7,0.00
2013-7-16,91.8,82.0,73.8,74.1,71.3,68.2,88,71,49,30.18,30.09,6,0,7,0.00
2013-7-17,95.2,83.2,73.9,74.7,71.0,67.6,85,68,44,30.16,30.03,4,0,4,0.00
2013-7-18,97.0,85.7,76.5,79.9,74.3,70.5,85,70,50,30.05,29.92,6,0,6,0.00
2013-7-19,96.1,86.4,79.0,80.8,77.5,75.6,93,76,56,29.95,29.77,10,0,11,0.00
2013-7-20,91.8,82.5,75.7,78.3,72.6,68.5,82,73,59,29.80,29.71,10,0,10,0.00
2013-7-21,88.2,77.4,72.3,75.2,71.4,68.7,93,82,61,29.91,29.80,7,0,7,0.17
2013-7-22,84.4,75.0,71.1,77.5,72.1,69.4,97,91,73,29.90,29.74,6,0,7,0.82
2013-7-23,84.4,75.3,70.2,77.7,71.8,68.7,98,89,70,29.74,29.55,6,0,9,0.99
2013-7-24,79.5,73.2,64.6,69.3,64.8,54.1,91,76,58,29.90,29.60,7,0,7,0.00
2013-7-25,69.3,64.2,59.4,60.3,56.4,52.3,83,76,69,30.01,29.89,6,0,6,0.00
2013-7-26,82.6,70.6,60.8,64.4,59.8,57.9,91,71,46,30.02,29.97,7,0,7,0.00
2013-7-27,83.5,72.8,63.0,69.8,63.8,58.8,96,75,54,30.02,29.88,5,0,6,0.00
2013-7-28,79.9,70.9,65.5,74.7,67.5,62.6,97,89,79,29.93,29.84,4,0,6,0.61
2013-7-29,83.5,71.7,65.3,66.4,62.0,55.0,97,75,41,30.09,29.92,8,0,10,0.02
2013-7-30,81.3,69.3,58.6,63.1,58.6,55.4,90,70,48,30.16,30.08,6,0,7,0.00
2013-7-31,82.0,71.2,60.3,66.0,61.5,57.4,93,73,48,30.13,29.99,8,0,8,0.00
2013-8-1,70.9,68.3,64.9,70.0,65.9,62.4,97,92,79,29.99,29.78,2,0,5,0.82
2013-8-2,84.6,73.8,64.8,69.3,65.2,59.9,97,77,49,29.90,29.78,12,0,12,0.00
2013-8-3,75.9,70.0,65.8,68.2,64.4,59.7,93,83,69,29.90,29.83,9,0,9,0.03
2013-8-4,78.1,69.0,60.6,63.5,59.6,54.9,95,74,47,29.96,29.83,9,0,10,0.00
2013-8-5,78.4,66.0,54.9,58.3,54.2,49.6,91,68,43,30.05,29.96,6,0,7,0.00
2013-8-6,78.1,66.8,57.7,65.5,59.0,54.0,93,77,52,30.08,30.00,5,0,5,0.00
2013-8-7,75.2,69.3,64.8,68.9,66.2,61.5,96,90,78,30.09,30.01,8,0,8,0.00
2013-8-8,84.6,75.0,68.5,77.7,71.4,67.1,97,89,73,30.02,29.94,13,0,13,0.50
2013-8-9,83.1,77.0,73.9,77.7,73.8,71.2,96,90,77,29.96,29.78,7,0,9,0.50
2013-8-10,83.1,74.9,66.9,73.2,66.9,63.9,96,77,57,30.01,29.84,9,0,9,0.00
2013-8-11,84.7,72.6,60.8,68.9,62.6,56.7,90,72,51,30.10,29.97,5,0,5,0.00
2013-8-12,83.8,73.7,69.1,71.8,67.7,64.0,96,83,56,29.99,29.88,3,0,4,0.02
2013-8-13,81.0,71.8,64.4,71.2,68.2,63.3,97,89,69,29.88,29.67,4,0,4,2.23
2013-8-14,73.6,65.0,55.9,67.6,54.6,49.3,94,70,51,30.03,29.73,11,0,13,0.00
2013-8-15,77.7,64.1,52.0,57.0,52.8,48.9,92,70,41,30.13,30.03,10,0,10,0.00
2013-8-16,79.3,66.7,54.5,61.0,55.4,51.3,94,70,43,30.17,30.09,5,0,5,0.00
2013-8-17,81.7,68.5,57.9,63.5,58.1,54.7,94,71,44,30.24,30.17,7,0,7,0.00
2013-8-18,74.8,67.0,62.6,64.4,60.8,57.6,90,81,59,30.22,30.11,3,0,3,0.00
2013-8-19,75.7,68.1,61.2,68.2,63.1,59.2,94,84,68,30.12,30.02,5,0,6,0.00
2013-8-20,87.6,73.9,63.1,71.1,65.9,62.1,97,78,50,30.11,30.03,5,0,5,0.00
2013-8-21,88.9,76.3,65.3,70.7,66.6,60.3,95,74,43,30.15,30.02,6,0,6,0.00
2013-8-22,80.8,74.4,70.5,74.8,71.3,68.4,97,90,77,30.03,29.85,7,0,7,0.84
2013-8-23,75.9,70.1,64.8,68.4,63.9,59.0,94,81,62,30.06,29.86,4,0,4,0.00
2013-8-24,81.9,68.3,60.3,60.4,55.8,51.1,82,66,41,30.31,30.06,5,0,5,0.00
2013-8-25,81.3,67.8,56.3,62.8,56.3,53.6,94,69,41,30.38,30.21,7,0,7,0.00
2013-8-26,85.3,72.6,62.8,68.7,62.8,56.5,83,72,55,30.22,29.90,11,0,11,0.00
2013-8-27,87.1,76.7,70.2,70.5,67.9,65.8,89,75,54,29.90,29.82,7,0,7,0.01
2013-8-28,73.2,71.1,69.4,71.6,69.3,66.9,98,94,86,29.86,29.78,2,0,2,1.24
2013-8-29,79.3,72.3,68.7,71.8,69.2,65.1,98,91,74,29.99,29.83,6,0,6,0.01
2013-8-30,82.2,73.3,66.6,74.3,68.8,64.8,95,86,74,29.99,29.83,6,0,7,0.00
2013-8-31,86.5,76.7,70.0,77.0,71.8,68.0,95,85,71,29.85,29.75,6,0,6,0.00
2013-9-1,88.7,76.8,70.7,76.3,71.8,67.6,96,85,61,29.81,29.72,5,0,5,0.05
2013-9-2,81.3,73.5,70.5,74.7,71.3,69.3,97,93,74,29.75,29.66,6,0,6,1.19
2013-9-3,82.2,72.4,64.0,70.2,64.8,57.2,97,79,50,29.87,29.67,8,0,8,0.00
2013-9-4,82.4,69.5,59.0,63.0,58.8,56.3,91,71,46,30.00,29.86,8,0,8,0.00
2013-9-5,78.4,67.3,59.5,65.3,56.1,46.9,87,69,41,30.11,29.92,7,0,7,0.00
2013-9-6,72.0,60.4,50.7,50.9,46.7,41.0,82,63,35,30.23,30.11,4,0,4,0.00
2013-9-7,79.5,64.3,50.4,59.2,51.8,47.3,91,67,38,30.11,29.88,7,0,7,0.00
2013-9-8,80.4,69.6,59.0,67.1,59.3,46.9,89,71,53,30.04,29.82,8,0,10,0.00
2013-9-9,75.6,63.6,51.6,62.4,54.5,45.3,86,73,56,30.19,30.04,6,0,8,0.00
2013-9-10,86.9,75.8,66.4,75.6,70.0,62.1,93,83,68,30.14,30.03,8,0,8,0.00
2013-9-11,93.4,81.7,72.7,79.5,73.8,70.5,95,78,58,30.09,29.94,6,0,6,0.00
2013-9-12,88.0,76.3,68.4,75.7,71.3,66.9,96,85,66,29.95,29.67,11,0,11,0.26
2013-9-13,74.8,66.5,56.8,67.5,60.2,50.4,97,81,56,29.85,29.61,10,0,10,0.05
2013-9-14,62.8,55.7,47.7,50.5,47.8,44.4,90,75,61,30.12,29.85,9,0,9,0.00
2013-9-15,72.9,58.5,45.3,55.0,49.7,43.3,94,75,48,30.20,30.06,7,0,7,0.00
2013-9-16,70.2,61.3,55.9,60.1,55.1,48.2,94,81,58,30.21,30.00,6,0,6,0.04
2013-9-17,55.9,50.2,45.9,48.2,44.6,42.4,88,81,74,30.32,30.21,6,0,6,0.00
2013-10-8,63.7,55.1,53.4,50.9,44.0,-99.9,82,72,56,30.27,30.18,3,-33,3,0.00
2013-10-9,60.1,54.3,49.3,50.5,47.2,42.1,81,77,69,30.32,30.21,7,0,7,0.00
2013-10-10,58.1,54.5,50.4,55.6,51.7,47.7,95,90,79,30.21,29.97,6,0,7,0.07
2013-10-11,62.2,59.1,56.1,60.6,57.0,-99.9,97,94,89,30.02,29.93,7,-3,7,0.95
2013-10-12,70.0,62.8,57.4,59.4,53.4,44.1,92,72,51,30.18,29.99,8,0,8,0.00
2013-10-13,65.8,59.1,51.1,54.9,51.6,48.6,92,77,58,30.32,30.18,10,0,10,0.00
2013-10-14,68.5,56.0,47.1,55.0,50.1,45.5,95,82,55,30.31,30.19,5,0,6,0.00
2013-10-15,70.7,57.4,47.3,57.2,49.4,43.7,96,77,49,30.22,30.06,5,0,5,0.00
2013-10-16,66.0,58.3,51.4,59.7,55.0,47.3,96,89,78,30.06,29.87,5,0,5,0.00
2013-10-17,72.0,64.5,59.4,63.5,61.1,57.4,95,89,73,29.88,29.66,8,0,9,0.02
2013-10-18,65.8,57.8,48.7,62.1,46.9,42.1,91,68,50,29.96,29.67,13,1,13,0.00
2013-10-19,62.8,53.4,44.8,54.5,46.7,41.4,92,79,58,29.96,29.72,11,0,11,0.06
2013-10-20,61.9,52.1,44.1,51.6,41.1,37.0,93,68,42,30.03,29.75,15,0,15,0.00
2013-10-21,67.3,53.7,41.9,46.6,41.0,37.4,88,65,38,30.11,29.93,9,0,9,0.00
2013-10-22,64.0,53.6,46.6,53.2,46.4,33.6,94,77,59,29.93,29.74,8,0,8,0.00
2013-10-23,55.2,46.5,41.4,43.0,37.1,33.8,82,70,57,29.78,29.58,7,0,7,0.00
2013-10-24,53.1,42.9,35.8,37.2,32.5,28.8,89,69,43,30.01,29.75,15,1,15,0.00
2013-10-25,52.7,42.8,34.2,37.6,32.5,29.1,84,68,48,30.21,30.01,10,0,10,0.00
2013-10-26,54.1,44.4,32.7,36.9,31.9,28.9,86,63,43,30.21,29.87,16,1,16,0.00
2013-10-27,57.4,48.2,39.4,37.9,33.7,31.5,73,58,44,30.10,29.85,11,0,11,0.00
2013-10-28,61.5,47.4,35.2,39.9,35.2,30.2,84,64,42,30.27,30.09,8,0,10,0.00
2013-10-29,58.1,47.6,39.7,42.8,37.8,32.5,88,70,49,30.36,30.27,4,0,5,0.00
2013-10-30,59.2,49.3,41.4,52.7,45.3,37.4,92,86,77,30.31,30.14,5,0,6,0.00
2013-10-31,66.7,58.7,49.6,60.6,55.3,48.0,97,89,75,30.18,29.73,12,1,12,0.02
2013-11-1,68.2,63.4,55.2,63.5,58.5,53.6,94,85,66,29.74,29.51,15,2,21,0.48
2013-11-2,68.9,56.6,48.6,54.3,46.7,39.9,95,71,47,29.75,29.58,8,0,8,0.00
2013-11-3,50.4,44.1,33.3,41.9,32.5,20.8,84,65,42,30.41,29.75,13,1,13,0.00
2013-11-4,45.9,36.2,28.8,26.1,21.7,17.6,72,57,34,30.60,30.41,8,0,8,0.00
2013-11-5,56.3,44.8,33.3,43.0,35.7,24.6,88,71,58,30.59,30.42,7,0,7,0.00
2013-11-6,63.9,53.9,44.1,52.9,46.9,40.8,90,78,58,30.43,30.00,8,1,8,0.00
2013-11-7,59.7,52.4,39.6,56.3,48.9,35.2,93,88,76,30.00,29.73,11,0,11,0.07
2013-11-8,48.6,41.2,34.9,36.1,30.2,26.8,77,65,50,30.20,29.92,14,1,15,0.00
2013-11-9,50.2,40.9,31.5,35.2,29.7,25.9,81,66,43,30.26,29.94,9,0,9,0.00
2013-11-10,60.1,47.0,37.6,39.6,32.6,28.2,80,59,41,30.06,29.82,19,2,21,0.00
2013-11-11,53.4,46.5,35.1,36.5,32.1,27.5,76,58,46,30.18,29.92,11,1,11,0.00
2013-11-12,49.5,36.4,25.5,37.4,24.2,15.8,82,62,47,30.27,29.89,15,2,15,0.00
2013-11-13,38.7,31.1,23.5,20.7,16.7,12.7,70,56,40,30.36,30.26,13,1,14,0.00
2013-11-14,52.3,39.9,28.6,26.1,19.6,13.5,71,48,22,30.26,30.15,16,1,16,0.00
2013-11-15,57.6,44.8,34.9,35.2,29.9,24.3,78,58,29,30.20,30.11,7,0,7,0.00
2013-11-16,57.6,48.6,42.1,46.9,43.0,32.4,94,82,62,30.28,30.19,7,0,7,0.03
2013-11-17,65.1,56.4,48.4,58.1,52.5,46.2,94,87,75,30.20,29.71,10,1,10,0.00
2013-11-18,64.9,58.3,47.5,60.4,41.2,26.8,95,56,30,29.78,29.57,18,2,20,0.15
2013-11-19,47.5,41.3,30.4,29.1,25.9,21.7,71,54,45,30.30,29.78,15,2,15,0.00
2013-11-20,44.2,34.8,28.2,23.0,17.3,7.9,74,51,26,30.54,30.30,10,1,10,0.00
2013-11-21,50.9,40.9,28.6,41.4,29.7,14.0,79,64,49,30.55,30.33,6,0,7,0.00
2013-11-22,56.5,50.9,46.9,49.5,46.6,41.0,93,85,75,30.33,29.89,11,1,11,0.00
2013-11-23,50.9,40.2,28.2,47.8,27.7,11.5,93,61,44,30.02,29.90,20,3,20,0.00
2013-11-24,28.8,24.2,20.7,11.3,4.6,1.9,53,43,34,30.38,30.02,23,3,23,0.00
2013-11-25,34.2,26.8,18.9,18.7,13.5,7.0,74,58,44,30.47,30.29,10,1,10,0.00
2013-11-26,46.2,34.5,30.9,45.0,28.1,18.3,96,78,58,30.29,29.61,7,0,7,0.62
2013-11-27,60.6,42.0,30.6,59.5,39.3,21.4,97,91,67,29.78,29.36,18,3,18,1.52
2013-11-28,35.8,29.9,26.6,21.7,18.2,16.0,70,62,46,30.42,29.78,17,2,21,0.00
2013-11-29,39.4,30.3,23.4,23.9,20.3,17.6,82,67,51,30.68,30.41,9,0,10,0.00
2013-11-30,37.0,29.5,20.8,27.5,21.0,12.9,81,71,65,30.68,30.32,7,0,7,0.00
2013-12-1,47.7,37.8,27.9,35.1,29.4,25.2,92,73,53,30.32,29.97,7,0,7,0.00
2013-12-2,49.5,40.9,37.0,36.3,32.5,29.1,81,72,57,29.97,29.82,5,0,5,0.00
2013-12-3,52.7,42.8,37.8,40.8,35.5,32.2,90,76,55,29.95,29.83,7,0,8,0.00
2013-12-4,50.5,43.2,34.5,43.5,38.0,31.5,90,82,71,30.06,29.95,5,0,7,0.00
2013-12-5,57.7,51.6,45.9,56.7,50.3,43.5,97,96,90,30.05,29.87,7,0,8,0.00
2013-12-6,60.3,46.6,35.4,59.7,45.1,33.8,98,94,85,30.10,29.80,13,2,13,0.65
2013-12-7,38.1,33.9,28.0,34.2,29.4,21.4,95,84,70,30.47,30.03,10,1,12,0.05
2013-12-8,29.1,26.4,24.3,27.0,21.6,17.8,95,82,68,30.54,30.28,6,0,6,0.00
2013-12-9,34.5,32.6,28.2,33.4,31.5,27.0,96,96,95,30.28,29.93,8,0,8,0.30
2013-12-10,32.2,29.6,21.6,31.1,27.8,18.7,96,93,86,30.12,29.86,8,0,8,0.03
2013-12-11,30.9,23.8,16.3,23.0,18.3,13.6,91,80,64,30.32,30.12,13,1,16,0.09
2013-12-12,27.0,21.5,17.2,19.2,12.7,7.9,90,70,48,30.34,30.13,11,1,11,0.01
2013-12-13,34.7,27.0,17.4,19.8,14.7,7.3,71,60,48,30.28,30.11,15,2,15,0.00
2013-12-14,29.7,26.9,24.1,28.4,22.7,19.2,95,84,67,30.37,29.65,10,1,10,0.00
2013-12-15,37.0,31.9,26.8,34.2,27.9,21.7,96,86,69,29.82,29.51,15,2,17,0.42
2013-12-16,29.7,24.5,19.0,23.0,13.3,9.9,79,62,48,30.18,29.81,15,2,15,0.00
2013-12-17,27.9,23.3,18.7,25.0,19.7,14.5,91,86,70,30.16,29.89,5,0,5,0.00
2013-12-18,36.1,27.2,18.0,26.1,20.3,15.3,92,76,59,30.16,29.90,13,1,17,0.09
2013-12-19,45.5,34.7,23.0,31.3,26.1,18.7,89,72,53,30.16,29.99,9,0,9,0.24
2013-12-20,51.3,43.5,35.8,42.3,33.5,28.6,86,69,52,30.05,29.92,7,0,7,0.01
2013-12-21,62.2,52.9,42.6,56.7,48.5,40.6,95,85,73,29.95,29.84,11,0,11,0.00
2013-12-22,65.8,62.5,59.2,62.2,59.0,55.9,93,88,83,29.90,29.74,18,2,19,0.09
2013-12-23,59.0,53.0,39.6,57.9,50.6,31.8,97,92,72,30.11,29.84,7,1,12,0.52
2013-12-24,39.6,33.0,24.6,32.0,23.1,13.8,81,67,56,30.33,30.07,15,2,18,0.01
2013-12-25,27.0,23.4,17.6,16.9,11.9,7.9,71,61,52,30.50,30.33,11,1,13,0.00
2013-12-26,37.0,27.7,21.0,29.8,22.3,16.3,89,80,69,30.36,30.13,13,0,13,0.00
2013-12-27,43.3,31.8,23.2,24.8,21.7,18.5,84,68,43,30.33,30.23,13,1,15,0.00
2013-12-28,55.6,41.7,28.8,30.7,26.6,21.0,74,57,37,30.24,30.03,18,1,19,0.00
2013-12-29,43.5,40.9,38.7,40.6,35.3,28.0,96,82,56,30.03,29.39,11,1,11,0.76
2013-12-30,43.3,35.8,23.2,39.6,29.4,14.5,94,78,61,30.12,29.68,12,1,12,0.00
2013-12-31,33.6,25.8,19.0,27.3,16.8,12.7,80,69,58,30.26,30.02,15,1,16,0.00
2014-1-1,35.6,27.9,20.1,23.4,18.8,11.8,77,69,58,30.36,30.15,6,0,8,0.00
2014-1-2,30.6,26.1,16.9,24.8,21.9,14.7,92,84,72,30.15,29.58,12,1,12,0.00